Location: Ferchesar
(52.6477°N, 12.4298°E)
Time: 06:08:53
(UTC+01:00)

Tiros 1 - Pass Details

Date: 07 December 2021
Orbit: 629 x 664 km, 48.4° (Epoch: 25 January)

Event Time Altitude Azimuth Distance (km) Brightness Sun altitude
Rises 19:23:26 0° 250° (WSW) 2,922 11.5 -30.1°
Reaches altitude 10° 19:25:48 10° 245° (WSW) 2,019 10.4 -30.5°
Enters shadow 19:28:14 28° 228° (SW) 1,186 8.8 -30.8°
